| time (UTC) | temp F | wind direction | speed knots | gust knots | rain 1hr in | rain 24hr in | rain mn in | humidity % | barometer mb |
| 20260506154027 | 66 | 141 | 3.5 | 7.0 | 0.00 | 0.00 | 0.00 | 50 | 1015.6 |
| 20260506153033 | 67 | 133 | 5.2 | 8.7 | 0.00 | 0.00 | 0.00 | 49 | 1015.7 |
| 20260506152020 | 67 | 156 | 5.2 | 11.3 | 0.00 | 0.00 | 0.00 | 49 | 1015.7 |
| 20260506151025 | 68 | 155 | 3.5 | 8.7 | 0.00 | 0.00 | 0.00 | 47 | 1015.8 |
| 20260506150030 | 69 | 130 | 2.6 | 6.1 | 0.00 | 0.00 | 0.00 | 45 | 1015.7 |
| 20260506145020 | 70 | 140 | 2.6 | 7.0 | 0.00 | 0.00 | 0.00 | 43 | 1015.6 |
| 20260506144023 | 69 | 135 | 2.6 | 7.8 | 0.00 | 0.00 | 0.00 | 45 | 1015.7 |
| 20260506143028 | 70 | 151 | 2.6 | 5.2 | 0.00 | 0.00 | 0.00 | 44 | 1015.6 |
| 20260506142016 | 70 | 131 | 4.3 | 8.7 | 0.00 | 0.00 | 0.00 | 44 | 1015.6 |
| 20260506141021 | 69 | 155 | 4.3 | 11.3 | 0.00 | 0.00 | 0.00 | 46 | 1015.6 |
| 20260506140026 | 68 | 113 | 2.6 | 7.8 | 0.00 | 0.00 | 0.00 | 46 | 1015.9 |
| 20260506135031 | 69 | 126 | 3.5 | 9.6 | 0.00 | 0.00 | 0.00 | 46 | 1015.8 |
| 20260506134019 | 69 | 113 | 4.3 | 11.3 | 0.00 | 0.00 | 0.00 | 45 | 1015.7 |
| 20260506133024 | 69 | 133 | 2.6 | 6.1 | 0.00 | 0.00 | 0.00 | 44 | 1015.7 |
| 20260506132029 | 68 | 79 | 3.5 | 12.2 | 0.00 | 0.00 | 0.00 | 46 | 1015.7 |
| 20260506131017 | 68 | 82 | 2.6 | 7.8 | 0.00 | 0.00 | 0.00 | 46 | 1015.9 |
| 20260506130022 | 68 | 126 | 4.3 | 9.6 | 0.00 | 0.00 | 0.00 | 48 | 1015.8 |
| 20260506125047 | 68 | 69 | 3.5 | 7.0 | 0.00 | 0.00 | 0.00 | 46 | 1016.0 |
| 20260506120018 | 67 | 100 | 2.6 | 7.8 | 0.00 | 0.00 | 0.00 | 48 | 1016.4 |
| 20260506115025 | 67 | 75 | 2.6 | 6.1 | 0.00 | 0.00 | 0.00 | 48 | 1016.4 |
| 20260506114028 | 67 | 145 | 4.3 | 9.6 | 0.00 | 0.00 | 0.00 | 49 | 1016.5 |
| 20260506113033 | 67 | 124 | 3.5 | 8.7 | 0.00 | 0.00 | 0.00 | 49 | 1016.5 |
| 20260506112021 | 66 | 147 | 2.6 | 7.8 | 0.00 | 0.00 | 0.00 | 50 | 1016.5 |
| 20260506111025 | 66 | 96 | 3.5 | 9.6 | 0.00 | 0.00 | 0.00 | 49 | 1016.5 |
| 20260506110030 | 66 | 133 | 4.3 | 9.6 | 0.00 | 0.00 | 0.00 | 49 | 1016.6 |
| 20260506105018 | 67 | 120 | 4.3 | 8.7 | 0.00 | 0.00 | 0.00 | 50 | 1016.6 |
| 20260506104023 | 66 | 129 | 3.5 | 6.1 | 0.00 | 0.00 | 0.00 | 50 | 1016.7 |
| 20260506103028 | 67 | 125 | 2.6 | 7.8 | 0.00 | 0.00 | 0.00 | 49 | 1016.6 |
| 20260506102016 | 66 | 164 | 4.3 | 8.7 | 0.00 | 0.00 | 0.00 | 50 | 1016.4 |
| 20260506101021 | 66 | 138 | 5.2 | 13.0 | 0.00 | 0.00 | 0.00 | 50 | 1016.6 |
| 20260506100026 | 66 | 90 | 3.5 | 11.3 | 0.00 | 0.00 | 0.00 | 48 | 1016.6 |
| 20260506095031 | 66 | 112 | 3.5 | 8.7 | 0.00 | 0.00 | 0.00 | 49 | 1016.5 |
| 20260506094019 | 66 | 122 | 4.3 | 11.3 | 0.00 | 0.00 | 0.00 | 50 | 1016.6 |
| 20260506093024 | 66 | 127 | 3.5 | 7.0 | 0.00 | 0.00 | 0.00 | 51 | 1016.6 |
| 20260506092029 | 65 | 159 | 4.3 | 7.8 | 0.00 | 0.00 | 0.00 | 51 | 1016.6 |
| 20260506091018 | 65 | 133 | 4.3 | 8.7 | 0.00 | 0.00 | 0.00 | 50 | 1016.6 |
| 20260506090024 | 65 | 133 | 3.5 | 7.8 | 0.00 | 0.00 | 0.00 | 50 | 1016.5 |
| 20260506085047 | 65 | 131 | 5.2 | 12.2 | 0.00 | 0.00 | 0.00 | 49 | 1016.4 |
| 20260506072021 | 64 | 163 | 4.3 | 7.8 | 0.00 | 0.00 | 0.00 | 44 | 1016.0 |
| 20260506071026 | 64 | 149 | 3.5 | 8.7 | 0.00 | 0.00 | 0.00 | 48 | 1015.7 |
| 20260506062017 | 63 | 113 | 3.5 | 11.3 | 0.00 | 0.00 | 0.00 | 45 | 1015.7 |
| 20260506061022 | 63 | 119 | 3.5 | 7.8 | 0.00 | 0.00 | 0.00 | 46 | 1015.7 |
| 20260506051017 | 62 | 110 | 0.9 | 1.7 | 0.00 | 0.00 | 0.00 | 59 | 1015.5 |
| 20260506045027 | 61 | 174 | 0.0 | 0.0 | 0.00 | 0.00 | 0.00 | 62 | 1015.2 |
| 20260506044032 | 58 | 174 | 0.0 | 0.0 | 0.00 | 0.00 | 0.00 | 66 | 1015.1 |
| 20260506043020 | 56 | 174 | 0.0 | 0.0 | 0.00 | 0.00 | 0.00 | 70 | 1015.1 |
| 20260506042025 | 56 | 174 | 0.0 | 0.0 | 0.00 | 0.00 | 0.00 | 71 | 1014.9 |
| 20260506041030 | 53 | 174 | 0.0 | 0.0 | 0.00 | 0.00 | 0.00 | 76 | 1015.0 |
| 20260506040018 | 50 | 174 | 0.0 | 0.0 | 0.00 | 0.00 | 0.00 | 77 | 1014.9 |
| 20260506035023 | 48 | 173 | 0.0 | 0.0 | 0.00 | 0.00 | 0.00 | 76 | 1015.0 |
| 20260506034028 | 46 | 173 | 0.0 | 0.0 | 0.00 | 0.00 | 0.00 | 79 | 1014.9 |
| 20260506033016 | 43 | 173 | 0.0 | 0.0 | 0.00 | 0.00 | 0.00 | 79 | 1015.0 |
| 20260506032021 | 42 | 173 | 0.0 | 0.0 | 0.00 | 0.00 | 0.00 | 79 | 1014.9 |
| 20260506031026 | 42 | 173 | 0.0 | 0.0 | 0.00 | 0.00 | 0.00 | 78 | 1014.9 |
| 20260506030036 | 42 | 173 | 0.0 | 0.0 | 0.00 | 0.00 | 0.00 | 78 | 1014.9 |
| 20260506025019 | 42 | 173 | 0.0 | 0.0 | 0.00 | 0.00 | 0.00 | 78 | 1014.7 |
| 20260506024024 | 42 | 173 | 0.0 | 0.0 | 0.00 | 0.00 | 0.00 | 77 | 1014.9 |
| 20260506023029 | 43 | 173 | 0.0 | 0.0 | 0.00 | 0.00 | 0.00 | 77 | 1014.7 |
| 20260506022017 | 43 | 173 | 0.0 | 0.0 | 0.00 | 0.00 | 0.00 | 76 | 1014.7 |
| 20260506021022 | 43 | 173 | 0.0 | 0.0 | 0.00 | 0.00 | 0.00 | 77 | 1014.8 |
| 20260506020026 | 43 | 173 | 0.0 | 0.0 | 0.00 | 0.00 | 0.00 | 77 | 1014.7 |
| 20260506015032 | 43 | 173 | 0.0 | 0.0 | 0.00 | 0.00 | 0.00 | 77 | 1014.7 |
| 20260506014020 | 43 | 173 | 0.0 | 1.7 | 0.00 | 0.00 | 0.00 | 78 | 1014.6 |
| 20260506013025 | 43 | 173 | 0.0 | 0.0 | 0.00 | 0.00 | 0.00 | 78 | 1014.9 |
| 20260506012029 | 43 | 173 | 0.0 | 0.0 | 0.00 | 0.00 | 0.00 | 77 | 1014.7 |
| 20260506011017 | 44 | 173 | 0.0 | 0.0 | 0.00 | 0.00 | 0.00 | 77 | 1014.8 |
| 20260506010022 | 44 | 173 | 0.9 | 2.6 | 0.00 | 0.00 | 0.00 | 77 | 1014.8 |
| 20260506005028 | 44 | 173 | 0.9 | 1.7 | 0.00 | 0.00 | 0.00 | 77 | 1014.9 |
| 20260506004015 | 44 | 173 | 0.9 | 1.7 | 0.00 | 0.00 | 0.00 | 77 | 1014.7 |
| 20260506003020 | 44 | 173 | 0.0 | 0.0 | 0.00 | 0.00 | 0.00 | 77 | 1014.7 |
| 20260506002025 | 44 | 173 | 0.0 | 0.0 | 0.00 | 0.00 | 0.00 | 76 | 1014.9 |
| 20260506001031 | 44 | 173 | 0.9 | 2.6 | 0.00 | 0.00 | 0.00 | 76 | 1014.9 |
| 20260506000018 | 45 | 173 | 0.0 | 0.0 | 0.00 | 0.00 | 0.00 | 75 | 1014.9 |
| 20260505235023 | 45 | 173 | 0.0 | 0.0 | 0.00 | 0.00 | 0.00 | 75 | 1014.9 |
| 20260505234028 | 45 | 173 | 0.0 | 0.0 | 0.00 | 0.00 | 0.00 | 75 | 1015.1 |
| 20260505233018 | 46 | 173 | 0.0 | 0.9 | 0.00 | 0.00 | 0.00 | 75 | 1015.1 |
| 20260505232021 | 46 | 173 | 0.9 | 2.6 | 0.00 | 0.00 | 0.00 | 75 | 1015.2 |
| 20260505231026 | 45 | 173 | 0.9 | 2.6 | 0.00 | 0.00 | 0.00 | 76 | 1015.6 |
| 20260505230031 | 45 | 173 | 0.0 | 1.7 | 0.00 | 0.00 | 0.00 | 76 | 1015.4 |
| 20260505225019 | 46 | 173 | 0.0 | 0.0 | 0.00 | 0.00 | 0.00 | 75 | 1015.6 |
| 20260505224025 | 47 | 173 | 0.0 | 0.0 | 0.00 | 0.00 | 0.00 | 74 | 1015.6 |
| 20260505223029 | 47 | 173 | 0.9 | 1.7 | 0.00 | 0.00 | 0.00 | 73 | 1015.6 |
| 20260505222017 | 48 | 173 | 0.0 | 0.0 | 0.00 | 0.00 | 0.00 | 72 | 1015.6 |
| 20260505221022 | 48 | 173 | 0.9 | 2.6 | 0.00 | 0.00 | 0.00 | 72 | 1015.6 |
| 20260505220027 | 48 | 172 | 1.7 | 3.5 | 0.00 | 0.00 | 0.00 | 72 | 1015.6 |
| 20260505215032 | 48 | 173 | 1.7 | 3.5 | 0.00 | 0.00 | 0.00 | 73 | 1015.8 |
| 20260505214020 | 48 | 173 | 1.7 | 3.5 | 0.00 | 0.00 | 0.00 | 74 | 1015.8 |
| 20260505213025 | 48 | 152 | 2.6 | 5.2 | 0.00 | 0.00 | 0.00 | 74 | 1015.9 |
| 20260505212030 | 48 | 152 | 2.6 | 6.1 | 0.00 | 0.00 | 0.00 | 75 | 1015.9 |
| 20260505211018 | 48 | 147 | 2.6 | 3.5 | 0.00 | 0.00 | 0.00 | 75 | 1016.0 |
| 20260505210023 | 48 | 158 | 2.6 | 5.2 | 0.00 | 0.00 | 0.00 | 75 | 1015.9 |
| 20260505205028 | 48 | 159 | 3.5 | 7.0 | 0.00 | 0.00 | 0.00 | 76 | 1015.9 |
| 20260505204033 | 48 | 154 | 2.6 | 5.2 | 0.00 | 0.00 | 0.00 | 76 | 1016.0 |
| 20260505203021 | 49 | 140 | 2.6 | 5.2 | 0.00 | 0.00 | 0.00 | 76 | 1016.0 |
| 20260505202025 | 49 | 155 | 2.6 | 5.2 | 0.00 | 0.00 | 0.00 | 76 | 1015.9 |
| 20260505201031 | 49 | 144 | 3.5 | 5.2 | 0.00 | 0.00 | 0.00 | 76 | 1016.0 |
| 20260505200018 | 49 | 159 | 2.6 | 6.1 | 0.00 | 0.00 | 0.00 | 75 | 1015.9 |
| 20260505195023 | 49 | 156 | 3.5 | 6.1 | 0.00 | 0.00 | 0.00 | 75 | 1015.9 |
| 20260505194028 | 50 | 162 | 2.6 | 5.2 | 0.00 | 0.00 | 0.00 | 74 | 1015.9 |
| 20260505193017 | 50 | 185 | 1.7 | 5.2 | 0.00 | 0.00 | 0.00 | 72 | 1015.9 |
| 20260505192021 | 50 | 176 | 2.6 | 6.1 | 0.00 | 0.00 | 0.00 | 72 | 1015.8 |
| 20260505191026 | 50 | 164 | 2.6 | 5.2 | 0.00 | 0.00 | 0.00 | 71 | 1015.9 |
| 20260505190031 | 51 | 157 | 2.6 | 5.2 | 0.00 | 0.00 | 0.00 | 69 | 1015.8 |
| 20260505185019 | 51 | 160 | 2.6 | 5.2 | 0.00 | 0.00 | 0.00 | 69 | 1015.7 |
| 20260505184025 | 51 | 152 | 3.5 | 6.1 | 0.00 | 0.00 | 0.00 | 68 | 1015.7 |
| 20260505183029 | 52 | 140 | 3.5 | 6.1 | 0.00 | 0.00 | 0.00 | 67 | 1015.7 |
| 20260505182017 | 52 | 149 | 3.5 | 7.0 | 0.00 | 0.00 | 0.00 | 67 | 1015.6 |
| 20260505181022 | 52 | 149 | 3.5 | 6.1 | 0.00 | 0.00 | 0.00 | 68 | 1015.5 |
| 20260505180029 | 53 | 143 | 3.5 | 5.2 | 0.00 | 0.00 | 0.00 | 67 | 1015.5 |
| 20260505175032 | 54 | 154 | 3.5 | 6.1 | 0.00 | 0.00 | 0.00 | 66 | 1015.3 |
| 20260505174020 | 54 | 153 | 4.3 | 7.0 | 0.00 | 0.00 | 0.00 | 65 | 1015.3 |
| 20260505173025 | 55 | 152 | 3.5 | 8.7 | 0.00 | 0.00 | 0.00 | 65 | 1015.3 |
| 20260505172030 | 56 | 160 | 3.5 | 7.0 | 0.00 | 0.00 | 0.00 | 63 | 1015.3 |
| 20260505171018 | 57 | 164 | 3.5 | 7.8 | 0.00 | 0.00 | 0.00 | 64 | 1015.2 |
| 20260505170023 | 58 | 164 | 3.5 | 8.7 | 0.00 | 0.00 | 0.00 | 63 | 1015.0 |
| 20260505165028 | 59 | 163 | 4.3 | 8.7 | 0.00 | 0.00 | 0.00 | 62 | 1015.1 |
| 20260505164016 | 59 | 140 | 5.2 | 8.7 | 0.00 | 0.00 | 0.00 | 61 | 1015.1 |
| 20260505163021 | 60 | 132 | 4.3 | 7.8 | 0.00 | 0.00 | 0.00 | 56 | 1014.8 |
| 20260505162026 | 60 | 124 | 3.5 | 7.8 | 0.00 | 0.00 | 0.00 | 55 | 1014.8 |
| 20260505161031 | 61 | 141 | 5.2 | 11.3 | 0.00 | 0.00 | 0.00 | 56 | 1014.9 |